Satellite-Ground Cal/Val Region Overpasses Predictions

Prediction of Satellite NPP Overpassing Cal/Val Region: PacNW

Region Location: (Latitude: 10.00, Longitude: 139.50) to (Latitude: 22.70, Longitude: 165.60).

Table of predicted overpasses for the next 14.0 days since TLE Epoch: 6/21/2019
Interval Starting Time Starting Location Ending Time Ending Location
1 06/22/2019 02:10:23 ( 19.24, 165.60) 06/22/2019 02:11:21 ( 22.64, 164.76)
2 06/22/2019 03:49:16 ( 10.03, 142.39) 06/22/2019 03:52:43 ( 22.18, 139.50)
3 06/22/2019 14:39:39 ( 22.65, 165.00) 06/22/2019 14:43:14 ( 10.03, 161.99)
4 06/22/2019 16:21:09 ( 22.65, 139.62) 06/22/2019 16:21:17 ( 22.18, 139.50)
5 06/23/2019 03:30:14 ( 10.03, 147.14) 06/23/2019 03:33:49 ( 22.65, 144.14)
6 06/23/2019 16:02:08 ( 22.64, 144.38) 06/23/2019 16:05:43 ( 10.02, 141.37)
7 06/24/2019 03:11:13 ( 10.03, 151.90) 06/24/2019 03:14:48 ( 22.65, 148.90)
8 06/24/2019 15:43:06 ( 22.70, 149.15) 06/24/2019 15:46:42 ( 10.02, 146.13)
9 06/25/2019 02:52:11 ( 10.04, 156.66) 06/25/2019 02:55:46 ( 22.66, 153.65)
10 06/25/2019 15:24:04 ( 22.70, 153.90) 06/25/2019 15:27:40 ( 10.02, 150.88)
11 06/26/2019 02:33:10 ( 10.04, 161.41) 06/26/2019 02:36:45 ( 22.66, 158.41)
12 06/26/2019 15:05:03 ( 22.69, 158.66) 06/26/2019 15:08:39 ( 10.01, 155.64)
13 06/27/2019 02:14:51 ( 12.57, 165.59) 06/27/2019 02:17:43 ( 22.67, 163.17)
14 06/27/2019 03:55:38 ( 10.05, 140.79) 06/27/2019 03:57:12 ( 15.57, 139.51)
15 06/27/2019 14:46:01 ( 22.69, 163.42) 06/27/2019 14:49:37 ( 10.01, 160.40)
16 06/28/2019 03:36:37 ( 10.05, 145.55) 06/28/2019 03:40:12 ( 22.68, 142.55)
17 06/28/2019 14:30:03 ( 11.94, 165.60) 06/28/2019 14:30:36 ( 10.00, 165.15)
18 06/28/2019 16:08:30 ( 22.68, 142.80) 06/28/2019 16:12:05 ( 10.06, 139.79)
19 06/29/2019 03:17:34 ( 10.00, 150.32) 06/29/2019 03:21:10 ( 22.68, 147.30)
20 06/29/2019 15:49:28 ( 22.67, 147.55) 06/29/2019 15:53:03 ( 10.05, 144.55)
21 06/30/2019 02:58:33 ( 10.01, 155.08) 06/30/2019 03:02:09 ( 22.69, 152.06)
22 06/30/2019 15:30:27 ( 22.67, 152.31) 06/30/2019 15:34:02 ( 10.05, 149.30)
23 07/01/2019 02:39:32 ( 10.01, 159.83) 07/01/2019 02:43:08 ( 22.69, 156.81)
24 07/01/2019 15:11:25 ( 22.66, 157.06) 07/01/2019 15:15:00 ( 10.04, 154.06)
25 07/02/2019 02:20:30 ( 10.02, 164.59) 07/02/2019 02:24:06 ( 22.70, 161.57)
26 07/02/2019 14:52:24 ( 22.65, 161.82) 07/02/2019 14:55:59 ( 10.03, 158.81)
27 07/03/2019 03:42:59 ( 10.03, 143.97) 07/03/2019 03:46:34 ( 22.65, 140.96)
28 07/03/2019 14:34:30 ( 18.66, 165.59) 07/03/2019 14:36:57 ( 10.03, 163.57)
29 07/03/2019 16:14:52 ( 22.64, 141.20) 07/03/2019 16:16:51 ( 15.66, 139.50)
30 07/04/2019 03:23:57 ( 10.04, 148.72) 07/04/2019 03:27:32 ( 22.66, 145.72)
31 07/04/2019 15:55:50 ( 22.69, 145.97) 07/04/2019 15:59:26 ( 10.02, 142.95)
32 07/05/2019 03:04:56 ( 10.04, 153.48) 07/05/2019 03:08:31 ( 22.67, 150.47)


NCC Satellite Cal/Val Overpasses Prediction Service
